www.pogodaiklimat.ru

Погода и климат >> Архив погоды >> Россия >> Якутия >> Усть-Мая


ПОГОДА в Усть-Мае

АРХИВ ПОГОДЫ в Усть-Мае

Время (UTC), дата Ветер
(напр.,м/с)
 
Видим.   Явления Облачность Т
(С)
Тd
(С)
f
(%)
Тe
(С)
Тes
(С)
Комфортность P
(гПа)
Po
(гПа)
Тmin
(С)
Tmax
(С)
R
(мм)
R24
(мм)
S
(см)
06 17.06 В 1 50 км 9/6 1000 м
[Cb cap Ac cuf]
+24.9 +10.3 40 +26 +28 жарко 998.2 979.1
09 17.06 СВ 2 50 км 9/5 1000 м
[Cb cap Ac cuf]
+23.3 +11.2 46 +26 +26 жарко 998.3 979.1 +26.7
12 17.06 СВ 1 4000 м мгла 8/4 1000 м
[Sc Ac trans]
+19.6 +10.6 56 +22 +22 комфорт 998.9 979.5
15 17.06 ЮВ 5 2000 м мгла 8/4 1000 м
[Sc Ac trans]
+17.1 +8.6 57 +16 +16 999.2 979.6
18 17.06 ЮЗ 3
{11}
50 км 6/3 1000 м
[Sc Ac trans Ci fib]
+15.2 +9.9 71 +15 +15 1001.0 981.2
21 17.06 Ю 5
{10}
50 км 3/0
[Ci fib]
+16.2 +10.5 69 +15 +17 1002.8 983.1 +15.1
00 18.06 ЮВ 7-10
{12}
50 км 5/3 1000 м
[Cu med, cong Ci fib]
+18.7 +9.1 54 +19 +20 1003.7 984.1
03 18.06 ЮВ 4
{12}
50 км 8/5 1000 м
[Cu med, cong Ci fib]
+20.6 +9.6 49 +22 +26 комфорт 1003.7 984.3
06 18.06 ЮВ 4
{10}
50 км 10/5 1000 м
[Cb cap Ci fib]
+20.9 +9.9 49 +23 +25 комфорт 1003.7 984.2
09 18.06 ЮВ 5 50 км 10/5 1000 м
[Cb cap Ac trans Ci fib]
+20.6 +7.0 41 +22 +22 комфорт 1003.8 984.4 +21.5
12 18.06 штиль 0 50 км 8/0
[Ac trans]
+15.9 +7.2 56 +16 +16 1005.4 985.6
15 18.06 СВ 1 50 км 6/0
[Ac trans Ci fib]
+9.8 +6.2 78 +9 +9 1006.5 986.2
18 18.06 В 1 10 км дым 4/0
[Ac trans Ci fib]
+9.8 +2.7 61 +10 +10 1007.4 987.1
21 18.06 штиль 0 2000 м мгла 3/0
[Ci fib]
+12.1 +4.6 60 +12 +15 1007.8 987.7 +7.9
00 19.06 Ю 2 2000 м мгла 5/0
[Ci fib]
+17.1 +5.0 45 +17 +26 1007.2 987.4
03 19.06 Ю 7-10
{10}
4000 м мгла 5/0
[Ci fib]
+19.8 +5.6 39 +20 +24 1006.4 986.8
06 19.06 Ю 5
{10}
4000 м мгла 8/0
[Ac trans Ci fib]
+18.8 +8.7 52 +19 +23 1006.0 986.4
09 19.06 ЮВ 3 50 км 10/4 1000 м
[Sc Ac trans Cs]
+18.1 +9.1 56 +18 +19 1005.8 986.2 +20.2
12 19.06 ЮВ 2 50 км 8/4 1000 м
[Sc Ac trans Ci fib]
+17.0 +9.2 60 +17 +17 1006.3 986.6
15 19.06 В 1 50 км 9/5 1000 м
[Sc Ci fib]
+13.8 +7.3 65 +14 +14 1007.1 986.9
18 19.06 СВ 2 50 км 8/5 1000 м
[Sc Ci fib]
+9.6 +7.1 84 +8 +8 1007.2 986.7
21 19.06 СВ 1 2000 м мгла 10/4 1000 м
[Sc Ac trans Cs]
+11.6 +8.1 79 +11 +12 1007.2 986.8 +7.9
00 20.06 В 2 4000 м мгла 10/3 1000 м
[Cu hum Ac trans Ci fib]
+16.0 +7.6 57 +16 +20 1006.3 986.3
03 20.06 ЮВ 5 20 км дым 10/5 1000 м
[Cu med, cong Ac trans Ci fib]
+18.2 +10.1 59 +18 +20 1005.3 985.7
06 20.06 ЮВ 3 50 км 10/6 1000 м
[Cb cap Ac trans Ci fib]
+17.5 +9.3 59 +18 +19 1004.8 985.1
09 20.06 ЮВ 3 50 км 10/3 1000 м
[Cu med, cong Ac lent Ci fib]
+16.2 +9.2 63 +16 +17 1004.9 985.2 +18.9
12 20.06 В 3 50 км 10/4 1000 м
[Sc Ac As]
+14.7 +9.1 69 +14 +14 1004.9 985.0
15 20.06 В 2 10 км дым 10/8 300 м
[Cb cap Ac As]
+13.1 +9.4 78 +12 +12 1004.6 984.7
18 20.06 штиль 0 50 км {ливн. осадки} 10/10 300 м
[Cb cap]
+10.6 +9.6 94 +10 +10 1004.2 984.1
21 20.06 Ю 1 10 км дым 10/10 270 м
[Cb cap]
+11.7 +10.3 91 +11 +11 1003.8 983.8 +10.6 0.5
00 21.06 штиль 0 50 км в посл. час ливневой дождь 10/10 1000 м
[Cb cap]
+11.9 +9.9 88 +11 +11 1003.0 983.0
03 21.06 ЮВ 4 50 км 10/8 960 м
[Cb cap As trans]
+14.9 +8.8 67 +14 +15 1002.4 982.6
06 21.06 ЮВ 2 50 км 10/8 1140 м
[Cb cap As trans]
+16.6 +10.5 67 +17 +18 1001.5 981.9
09 21.06 ЮВ 2 50 км 10/8 1410 м
[Cb cap Ac As]
+17.0 +10.3 65 +17 +18 1001.0 981.4 +17.1 0.1
12 21.06 ЮВ 2 50 км 10/4 1000 м
[Sc Ac trans]
+14.1 +8.5 69 +14 +14 1001.9 982.1
15 21.06 В 2 20 км слабый ливневой дождь 10/6 600 м
[Cb cap Ac As]
+12.1 +8.3 78 +11 +11 1002.5 982.5
18 21.06 С 1 10 км слабый дождь {ливн. осадки} 10/4 1000 м
[Sc As op]
+9.8 +9.2 96 +9 +9 1003.0 982.8
21 21.06 СВ 1 10 км слабый дождь 10/3 1000 м
[Sc As op]
+10.8 +10.0 95 +10 +11 1003.1 983.0 +9.7 1
00 22.06 В 2 20 км слабый дождь 10/8 420 м
[Frnb As op]
+12.7 +10.2 85 +12 +12 1003.6 983.6
03 22.06 В 2 50 км {ливн. осадки, дождь} 10/5 300 м
[Cb cap As trans]
+13.3 +10.4 83 +13 +15 1004.8 984.9
06 22.06 СВ 2 50 км {ливн. осадки, дождь} 10/10 1140 м
[Cb cap]
+16.1 +11.3 73 +16 +16 1004.7 985.0
09 22.06 ЮВ 3 50 км 10/10 1470 м
[Cb cap]
+16.2 +10.0 67 +16 +16 1006.0 986.2 +16.9 0.6
12 22.06 ЮВ 4 50 км 10/9 1320 м
[Cb cap Ac As]
+14.6 +8.0 65 +13 +13 1007.9 988.0
15 22.06 В 2 50 км 10/6 1000 м
[Sc As trans]
+13.1 +6.9 66 +13 +13 1009.1 989.1
18 22.06 В 1 50 км 10/5 1000 м
[Sc Ac trans Ci fib]
+11.8 +6.8 71 +12 +12 1009.7 989.5
21 22.06 СВ 1 50 км 10/3 1000 м
[Sc Cs]
+13.4 +8.4 72 +14 +15 1010.2 990.2 +10.3
00 23.06 В 1 50 км 6/1 1000 м
[Cu hum Ci fib]
+17.9 +10.8 63 +19 +28 1010.3 990.6
03 23.06 С 2 50 км 6/3 1000 м
[Cu med, cong Ci sp]
+20.5 +10.9 54 +23 +32 комфорт 1009.4 989.9
06 23.06 ЮВ 1 50 км 8/3 1000 м
[Cu hum Ac trans Ci fib]
+22.5 +10.2 46 +24 +30 комфорт 1008.4 989.0
09 23.06 Ю 2 50 км 8/3 1000 м
[Cu med, cong Ac trans Ci fib]
+22.7 +10.4 46 +25 +26 комфорт 1008.2 988.8 +23.4
12 23.06 З 1 50 км 8/0
[Ac trans Ci]
+19.0 +10.8 59 +21 +21 комфорт 1008.7 989.1
15 23.06 ЮЗ 1 50 км 10/0
[Ac trans Cs]
+11.9 +10.3 90 +12 +12 1009.5 989.4
18 23.06 З 1 50 км 10/0
[Ac trans Cs]
+12.2 +10.2 88 +12 +12 1010.0 989.9
21 23.06 штиль 0 50 км 6/0
[Ac trans Ci fib]
+14.2 +9.8 75 +14 +17 1010.1 990.1 +10.6
00 24.06 Ю 1 50 км 10/0
[Ac trans Ci fib]
+19.7 +14.1 70 +23 +28 комфорт 1009.5 989.9
03 24.06 Ю 2 50 км 10/4 1000 м
[Cu med, cong Ac trans Cs]
+23.8 +14.5 56 +26 +31 жарко 1008.7 989.4

 

Местоположение метеостанции Усть-Мая (Якутия, Россия): широта 60.35 долгота 134.40 высота над уровнем моря 170 м.

В архиве по умолчанию представлена погода в Усть-Мае за последнюю неделю. Архивные данные за месяц целиком и за предыдущие месяцы, начиная с января 2011 года, Вы можете получить, выбрав интересующий диапазон дат из раскрывающегося списка и нажав кнопку "Ввод!".


*Определитесь, кто Вы:
робот инопланетянин человек

Внимание! Время в таблицах - всемирное. Для получения местного времени необходимо прибавить поправку, которая в Усть-Мае равна 9 ч.

Смотрите также архив погоды в соседних городах и на ближайших метеорологических станциях:

Погода в Усть-Миле (Якутия, Россия) (112 км)
Погода в Усть-Юдоме (Якутия, Россия) (136 км)
Погода в Амге (Якутия, Россия) (149 км)
Погода в Охотском Перевозе (Якутия, Россия) (179 км)
Погода в Югоренке (Якутия, Россия) (189 км)
Погода в Чурапче (Якутия, Россия) (210 км)
Погода в Ытык-Кюёле (Якутия, Россия) (230 км)
Погода в Тегюльте (Якутия, Россия) (242 км)
Погода в Крест-Хальджае (Якутия, Россия) (275 км)
Погода в Учуре (Якутия, Россия) (280 км)

Пояснения к столбцам:

Ветер - указаны скорость ветра в м/с - средняя за 10 мин, порывы в срок и между сроками (в фигурных скобках) и направление, откуда дует ветер: С - северный, СВ - северо-восточный, В - восточный, ЮВ - юго-восточный, Ю - южный, ЮЗ - юго-западный, З - западный, СЗ - северо-западный.
Видимость - горизонтальная дальность видимости в метрах или километрах. При видимости от 1 до 10 км при отсутствии осадков обычно наблюдается дымка, при ухудшении видимости до 1 км и менее - туман. В сухую погоду видимость может ухудшаться дымом, пылью или мглою.
Явления - указаны атмосферные явления, наблюдавшиеся в срок или в последний час перед сроком; фигурными скобками обозначены явления, наблюдавшиеся между сроками (за 1-3 часа до срока); квадратными скобками обозначены град или гололедные отложения с указанием их диаметра в мм.
Облачность - указаны через наклонную черту общая и нижняя облачность в баллах и высота нижней границы облаков в метрах; квадратными скобками обозначены формы облаков: Ci - перистые, Cs - перисто-слоистые, Cc - перисто-кучевые, Ac - высококучевые, As - высокослоистые, Sc - слоисто-кучевые, Ns - слоисто-дождевые, Cu - кучевые, Cb - кучево-дождевые. Подробнее классификацию облаков см. в Атласе облаков (PDF).
T - Температура воздуха - температура, измеренная на высоте 2 м над землей.
Td - Температура точки росы - температура, при понижении до которой содержащийся в воздухе водяной пар достигнет насыщения.
f - Относительная влажность воздуха - влажноcть воздуха, измеренная на высоте 2 м над землей.
Te - Эффективная температура - температура, которую ощущает одетый по сезону человек в тени. Характеристика душности погоды. При расчете учитывается влияние влажности воздуха и скорости ветра на теплоощущения человека.
Tes - Эффективная температура на солнце - температура, которую ощущает человек, с поправкой на солнечный нагрев. Характеристика знойности погоды. Зависит от высоты солнца над горизонтом, облачности и скорости ветра. Ночью, в пасмурную погоду, а также при ветре 12 м/с и более поправка равна нулю.
P - Атмосферное давление - приведенное к уровню моря атмосферное давление.
Po - Атмосферное давление - измеренное на уровне метеостанции атмосферное давление.
Tmin - Минимальная температура - минимум температуры воздуха на высоте 2 м над землей.
Tmax - Максимальная температура - максимум температуры воздуха на высоте 2 м над землей.
R - Количество осадков - Количество выпавших осадков за период времени, мм. При наведении курсора мыши на число - период времени, за который выпало указанное количество осадков.
R24 - Количество осадков - Количество выпавших осадков за 24 часа, мм.
S - Снежный покров - Высота снежного покрова, см. При наведении курсора мыши на число - состояние снежного покрова и степень покрытия местности в баллах.